Evanston, WY

2:03 AM MST on January 23, 2018 (GMT -0700)
Evanston-Uinta County Burns

Weather History for KEVW - February, 2014

Change the Weather History Date:

Sunday, February 23, 2014

  Actual Average Record
Temperature  
Mean Temperature 32 °F 24 °F  
Max Temperature 39 °F 33 °F 44 °F (2002)
Min Temperature 25 °F 16 °F 2 °F (2015)
Degree Days  
Heating Degree Days 33 41  
Month to date heating degree days 923 978  
Since 1 July heating degree days 5503 5807  
Cooling Degree Days 0 0  
Month to date cooling degree days 0 0  
Year to date cooling degree days 0 0  
Moisture  
Dew Point 19 °F    
Average Humidity 62    
Maximum Humidity 75    
Minimum Humidity 48    
Precipitation  
Precipitation 0.00 in 0.03 in 0.22 in (2001)
Month to date precipitation T 0.50  
Year to date precipitation 0.03 1.04  
Sea Level Pressure  
Sea Level Pressure 30.02 in    
Wind  
Wind Speed 14 mph (SW)    
Max Wind Speed 24 mph    
Max Gust Speed 29 mph    
Visibility 10 miles    
Events      
T = Trace of Precipitation, MM = Missing Value Source: NWS Daily Summary

Daily Weather History Graph

Daily Weather History Graph

Search for Another Location

Airport or City:

Trip Planner

Search our weather history database for the weather conditions in past years. The results will help you decide how hot, cold, wet, or windy it might be!

Date:

Astronomy

Feb. 23, 2014 Rise Set
Actual Time 7:07 AM MST 6:07 PM MST
Civil Twilight 6:39 AM MST 6:35 PM MST
Nautical Twilight 6:07 AM MST 7:07 PM MST
Astronomical Twilight 5:35 AM MST 7:39 PM MST
Moon 2:11 AM MST 12:11 PM MST
Length of Visible Light 11h 56m
Length of Day
11h 00m
Last Quarter, 38% of the Moon is Illuminated
Feb 23
Last Quarter
Mar 1
New
Mar 8
First Quarter
Mar 16
Full
Mar 23
Last Quarter

Hourly Weather History & Observations

Time (MST) Temp. Windchill Dew Point Humidity Pressure Visibility Wind Dir Wind Speed Gust Speed Precip Events Conditions
12:53 AM 28.0 °F 20.0 °F 18.0 °F 66% 30.00 in 10.0 mi SW 8.1 mph - N/A   Overcast
1:53 AM 27.0 °F 19.5 °F 17.1 °F 66% 30.00 in 10.0 mi SSW 6.9 mph - N/A   Mostly Cloudy
2:53 AM 27.0 °F 20.5 °F 17.1 °F 66% 30.00 in 10.0 mi South 5.8 mph - N/A   Mostly Cloudy
3:53 AM 27.0 °F 20.5 °F 17.1 °F 66% 30.01 in 10.0 mi South 5.8 mph - N/A   Mostly Cloudy
4:53 AM 27.0 °F 18.0 °F 17.1 °F 66% 30.02 in 10.0 mi SSW 9.2 mph - N/A   Mostly Cloudy
5:53 AM 27.0 °F 15.6 °F 17.1 °F 66% 30.04 in 10.0 mi SW 13.8 mph - N/A   Overcast
6:53 AM 27.0 °F 16.7 °F 17.1 °F 66% 30.05 in 10.0 mi SW 11.5 mph - N/A   Overcast
7:53 AM 28.0 °F 16.5 °F 17.1 °F 63% 30.06 in 10.0 mi WSW 15.0 mph - N/A   Clear
8:53 AM 30.0 °F 19.5 °F 17.1 °F 59% 30.08 in 10.0 mi SW 13.8 mph - N/A   Clear
9:53 AM 32.0 °F 21.6 °F 18.0 °F 56% 30.07 in 10.0 mi SW 15.0 mph - N/A   Clear
10:53 AM 35.1 °F 24.8 °F 19.9 °F 54% 30.05 in 10.0 mi SW 17.3 mph - N/A   Clear
11:53 AM 37.0 °F 27.4 °F 21.0 °F 52% 30.05 in 10.0 mi WSW 17.3 mph - N/A   Clear
12:53 PM 37.0 °F 28.1 °F 21.0 °F 52% 30.03 in 10.0 mi WSW 15.0 mph - N/A   Clear
1:53 PM 37.9 °F 28.2 °F 21.9 °F 53% 30.01 in 10.0 mi WSW 18.4 mph - N/A   Clear
2:53 PM 37.9 °F 27.6 °F 21.0 °F 51% 30.01 in 10.0 mi WSW 20.7 mph - N/A   Clear
3:53 PM 37.9 °F 28.5 °F 23.0 °F 55% 29.99 in 10.0 mi WSW 17.3 mph - N/A   Clear
4:53 PM 37.0 °F 26.2 °F 21.0 °F 52% 29.99 in 10.0 mi WSW 21.9 mph - N/A   Clear
5:53 PM 36.0 °F 25.6 °F 19.9 °F 52% 30.00 in 10.0 mi West 18.4 mph - N/A   Clear
6:53 PM 36.0 °F 26.0 °F 21.0 °F 55% 30.01 in 10.0 mi WSW 17.3 mph - N/A   Clear
7:53 PM 36.0 °F 25.0 °F 21.0 °F 55% 30.01 in 10.0 mi WSW 20.7 mph - N/A   Clear
8:53 PM 36.0 °F 25.3 °F 19.9 °F 52% 30.00 in 10.0 mi WSW 19.6 mph - N/A   Clear
9:53 PM 33.1 °F 26.9 °F 19.9 °F 59% 30.01 in 10.0 mi WSW 6.9 mph - N/A   Clear
10:53 PM 32.0 °F 23.0 °F 18.0 °F 56% 30.00 in 10.0 mi SW 11.5 mph - N/A   Clear
11:53 PM 30.0 °F 21.1 °F 18.0 °F 61% 30.00 in 10.0 mi WSW 10.4 mph - N/A   Clear